New York, NY

1:27 PM EST on December 14, 2019 (GMT -0500)
La Guardia

Weather History for KLGA - October, 2019

Change the Weather History Date:

Friday, October 4, 2019

  Actual Average Record
Temperature  
Mean Temperature 58 °F 62 °F  
Max Temperature 66 °F 70 °F 86 °F (2013)
Min Temperature 50 °F 55 °F 38 °F (1945)
Degree Days  
Heating Degree Days 7 4  
Month to date heating degree days 11 16  
Since 1 July heating degree days 14 51  
Cooling Degree Days 0 2  
Month to date cooling degree days 22 8  
Year to date cooling degree days 1477 1198  
Growing Degree Days 10 (Base 50)    
Moisture  
Dew Point 48 °F    
Average Humidity 67    
Maximum Humidity 90    
Minimum Humidity 44    
Precipitation  
Precipitation T in 0.12 in 1.05 in (2014)
Month to date precipitation 0.44 0.49  
Year to date precipitation 36.92 34.47  
Snow  
Snow 0.00 in 0.00 in - ()
Month to date snowfall 0.0 0.0  
Since 1 July snowfall 0.0 0.0  
Snow Depth 0.00 in    
Sea Level Pressure  
Sea Level Pressure 30.06 in    
Wind  
Wind Speed 14 mph (NNW)    
Max Wind Speed 29 mph    
Max Gust Speed 36 mph    
Visibility 9 miles    
Events Rain    
T = Trace of Precipitation, MM = Missing Value Source: NWS Daily Summary

Daily Weather History Graph

Daily Weather History Graph

Search for Another Location

Airport or City:

Astronomy

Oct. 04, 2019 Rise Set
Actual Time 6:54 AM EDT 6:32 PM EDT
Civil Twilight 6:27 AM EDT 7:00 PM EDT
Nautical Twilight 5:55 AM EDT 7:31 PM EDT
Astronomical Twilight 5:23 AM EDT 8:03 PM EDT
Moon 1:26 PM EDT (10/4) 10:57 PM EDT (10/4)
Length of Visible Light 12h 32m
Length of Day
11h 38m
Waxing Crescent, 39% of the Moon is Illuminated
Oct 4
Waxing Crescent
Oct 5
First Quarter
Oct 13
Full
Oct 21
Last Quarter
Oct 27
New

Hourly Weather History & Observations

Time (EDT) Temp. Dew Point Humidity Pressure Visibility Wind Dir Wind Speed Gust Speed Precip Events Conditions
12:51 AM 60.1 °F 57.9 °F 93% 29.94 in 1.5 mi NNW 4.6 mph - 0.02 in   Light Drizzle
1:27 AM 60.1 °F 57.9 °F 93% 29.93 in 2.5 mi NNW 6.9 mph - 0.00 in   Overcast
1:48 AM 60.8 °F 57.2 °F 88% 29.92 in 6.0 mi NW 8.1 mph - 0.00 in   Overcast
1:51 AM 60.1 °F 57.9 °F 93% 29.93 in 6.0 mi NNW 8.1 mph - 0.00 in Rain Light Rain
2:51 AM 60.1 °F 57.9 °F 93% 29.91 in 9.0 mi NW 4.6 mph - 0.00 in   Overcast
3:51 AM 60.1 °F 57.0 °F 90% 29.90 in 10.0 mi WNW 6.9 mph - N/A   Overcast
3:58 AM 60.1 °F 57.0 °F 90% 29.90 in 10.0 mi WNW 8.1 mph - N/A   Overcast
4:51 AM 60.1 °F 55.9 °F 86% 29.91 in 10.0 mi WNW 6.9 mph - N/A   Mostly Cloudy
4:53 AM 60.1 °F 55.9 °F 86% 29.91 in 10.0 mi WNW 6.9 mph - N/A   Mostly Cloudy
5:37 AM 60.1 °F 55.9 °F 86% 29.93 in 10.0 mi WNW 10.4 mph - N/A   Scattered Clouds
5:51 AM 60.1 °F 55.9 °F 86% 29.93 in 10.0 mi WNW 10.4 mph - N/A   Scattered Clouds
6:51 AM 60.1 °F 55.0 °F 83% 29.94 in 10.0 mi WNW 9.2 mph - N/A   Scattered Clouds
7:51 AM 61.0 °F 54.0 °F 78% 29.96 in 10.0 mi WNW 12.7 mph - N/A   Partly Cloudy
8:51 AM 63.0 °F 53.1 °F 70% 30.00 in 10.0 mi NW 16.1 mph - N/A   Partly Cloudy
9:51 AM 64.0 °F 52.0 °F 65% 30.01 in 10.0 mi NNW 18.4 mph 26.5 mph N/A   Partly Cloudy
10:51 AM 64.9 °F 48.0 °F 54% 30.02 in 10.0 mi NNW 18.4 mph 32.2 mph N/A   Mostly Cloudy
11:51 AM 64.9 °F 45.0 °F 48% 30.05 in 10.0 mi NNW 24.2 mph 29.9 mph N/A   Scattered Clouds
12:51 PM 64.9 °F 43.0 °F 45% 30.06 in 10.0 mi NNW 21.9 mph 35.7 mph N/A   Partly Cloudy
1:51 PM 64.9 °F 43.0 °F 45% 30.09 in 10.0 mi NW 19.6 mph 27.6 mph N/A   Scattered Clouds
2:51 PM 62.1 °F 43.0 °F 50% 30.11 in 10.0 mi North 15.0 mph 25.3 mph N/A   Mostly Cloudy
3:51 PM 62.1 °F 41.0 °F 46% 30.14 in 10.0 mi North 18.4 mph 28.8 mph N/A   Scattered Clouds
4:51 PM 61.0 °F 39.0 °F 44% 30.16 in 10.0 mi North 16.1 mph 26.5 mph N/A   Partly Cloudy
5:51 PM 60.1 °F 39.9 °F 47% 30.18 in 10.0 mi NNW 12.7 mph 21.9 mph N/A   Partly Cloudy
6:51 PM 59.0 °F 39.0 °F 48% 30.21 in 10.0 mi North 15.0 mph - N/A   Partly Cloudy
7:51 PM 57.9 °F 39.9 °F 51% 30.24 in 10.0 mi North 11.5 mph - N/A   Partly Cloudy
8:51 PM 55.9 °F 39.9 °F 55% 30.27 in 10.0 mi North 10.4 mph - N/A   Partly Cloudy
9:51 PM 55.0 °F 39.0 °F 55% 30.30 in 10.0 mi NNE 10.4 mph - N/A   Clear
10:51 PM 54.0 °F 37.9 °F 55% 30.32 in 10.0 mi NNE 20.7 mph 26.5 mph N/A   Partly Cloudy
11:51 PM 52.0 °F 37.9 °F 59% 30.34 in 10.0 mi North 16.1 mph - N/A   Partly Cloudy